x

Camborne (03808) Weather Station

12:00 - Sun 1st Feb 2015 All times are GMT.

  • Wind
    23mph, 43mph gusts
  • Aire Temp 41°f
  • Sea Pressure 1005mb
  • Camborne
  • Camborne

More Historic Weather Station data

Upgrade to MSW Pro to gain access to the past 30 days of data for over 8000 Wavebouys and Weather Stations around the globe.

Join Pro

Comparision Forecast

View Surf forecast
   
dom 02/01 12:00 23 43 mph 1005mb 41f
sáb 01/31 11:00 26 45 mph 1004mb 41f
10:00 26 47 mph 1004mb 41f
9:00 26 41 mph 1003mb 42f
8:00 24 44 mph 1002mb 42f
7:00 26 45 mph 1001mb 42f
6:00 28 47 mph 1000mb 42f
5:00 29 45 mph 999mb 42f
4:00 28 47 mph 997mb 43f
3:00 28 48 mph 996mb 42f
2:00 24 43 mph 995mb 43f
1:00 25 45 mph 995mb 42f
12:00 26 44 mph 994mb 43f
11:00 25 44 mph 993mb 42f
10:00 25 44 mph 991mb 41f
9:00 25 44 mph 991mb 42f
8:00 25 40 mph 990mb 42f
7:00 22 43 mph 989mb 42f
6:00 25 44 mph 988mb 42f
5:00 23 44 mph 988mb 41f
4:00 24 38 mph 987mb 40f
3:00 22 38 mph 987mb 41f
2:00 22 36 mph 987mb 42f
1:00 21 36 mph 987mb 42f
12:00 24 34 mph 987mb 42f
vie 01/30 11:00 16 32 mph 987mb 40f
10:00 18 29 mph 986mb 42f
9:00 13 32 mph 986mb 42f
8:00 15
mph
986mb 42f
7:00 15 33 mph 985mb 41f
6:00 18
mph
985mb 44f
5:00 17
mph
985mb 44f
4:00 17 30 mph 985mb 45f
3:00 19 29 mph 986mb 45f
2:00 17 33 mph 986mb 45f
1:00 22 36 mph 986mb 45f
12:00 23 37 mph 987mb 46f
11:00 24 38 mph 987mb 46f
10:00 25 38 mph 987mb 45f
9:00 22 39 mph 987mb 45f
8:00 26 48 mph 987mb 44f
7:00 29 48 mph 987mb 44f
6:00 29 52 mph 986mb 44f
5:00 23 56 mph 986mb 39f
4:00 31 56 mph 985mb 45f
3:00 34 52 mph 985mb 45f
2:00 30 49 mph 986mb 44f
1:00 29 45 mph 987mb 44f
12:00 25 37 mph 988mb 43f
jue 01/29 11:00 25 38 mph 988mb 43f
10:00 22 39 mph 989mb 42f
9:00 24 40 mph 989mb 41f
8:00 25 44 mph 988mb 42f
7:00 24 44 mph 987mb 38f
6:00 24 41 mph 986mb 42f
5:00 25 46 mph 986mb 43f
4:00 31 49 mph 986mb 43f
3:00 28 44 mph 986mb 43f
2:00 25 46 mph 986mb 44f
1:00 26 41 mph 987mb 45f
12:00 24 37 mph 989mb 45f
11:00 25 37 mph 990mb 45f
10:00 22 33 mph 991mb 43f
9:00 21 44 mph 992mb 43f
8:00 25 37 mph 994mb 43f
7:00 19 40 mph 995mb 44f
6:00 23 46 mph 996mb 42f
5:00 22 41 mph 998mb 44f
4:00 19 37 mph 999mb 44f
3:00 16 38 mph 1001mb 44f
2:00 21 37 mph 1002mb 42f
1:00 17 43 mph 1003mb 43f
12:00 16 36 mph 1004mb 43f
mié 01/28 11:00 21 45 mph 1005mb 42f
10:00 18 47 mph 1006mb 42f
9:00 22 39 mph 1007mb 42f
8:00 15 40 mph 1008mb 41f
7:00 22 47 mph 1009mb 41f
6:00 14 41 mph 1009mb 41f
5:00 23 40 mph 1010mb 41f
4:00 22 37 mph 1010mb 44f
3:00 21 34 mph 1010mb 44f
2:00 24 40 mph 1010mb 44f
1:00 21 45 mph 1010mb 45f
12:00 26 49 mph 1011mb 45f
11:00 30 46 mph 1010mb 47f
10:00 28 45 mph 1010mb 50f
9:00 29 43 mph 1010mb 50f
8:00 25 41 mph 1011mb 50f
7:00 18
mph
1012mb 50f
6:00 19 32 mph 1013mb 49f
5:00 18 30 mph 1014mb 49f
4:00 15
mph
1015mb 49f
3:00 14
mph
1017mb 49f
2:00 15
mph
1018mb 48f
1:00 16
mph
1019mb 47f